Middlebury State AP, Middlebu, VT

5:24 AM EDT on September 22, 2019 (GMT -0400)
Middlebury State AP, Middlebu

Weather History for K6B0 - July, 2019

Change the Weather History Date:

Thursday, July 25, 2019

  Actual Average (WUND) Record (WUND)
Temperature  
Mean Temperature 66 °F -  
Max Temperature 79 °F - - (-1)
Min Temperature 52 °F - - (-1)
Growing Degree Days 16 (Base 50)    
Moisture  
Dew Point 58 °F    
Average Humidity 78    
Maximum Humidity 99    
Minimum Humidity 45    
Precipitation  
Precipitation 0.01 in - - ()
Sea Level Pressure  
Sea Level Pressure 30.11 in    
Wind  
Wind Speed 1 mph (South)    
Max Wind Speed 6 mph    
Max Gust Speed -    
Visibility 10 miles    
Events Rain , Thunderstorm    
Averages and records for this station are not official NWS values.
T = Trace of Precipitation, MM = Missing Value Source: NWS Daily Summary

Daily Weather History Graph

Daily Weather History Graph

Search for Another Location

Airport or City:

Astronomy

Jul. 25, 2019 Rise Set
Actual Time 5:32 AM EDT 8:24 PM EDT
Civil Twilight 4:59 AM EDT 8:58 PM EDT
Nautical Twilight 4:16 AM EDT 9:40 PM EDT
Astronomical Twilight 3:25 AM EDT 10:30 PM EDT
Moon 12:23 AM EDT (7/25) 1:57 PM EDT (7/25)
Length of Visible Light 15h 58m
Length of Day
14h 51m
Last Quarter, 44% of the Moon is Illuminated
Jul 25
Last Quarter
Jul 31
New
Aug 7
First Quarter
Aug 15
Full
Aug 23
Last Quarter

Hourly Weather History & Observations

Time (EDT) Temp. Dew Point Humidity Pressure Visibility Wind Dir Wind Speed Gust Speed Precip Events Conditions
12:15 AM 58.1 °F 54.5 °F 88% 30.05 in 10.0 mi Calm Calm - N/A   Scattered Clouds
12:35 AM 58.5 °F 54.3 °F 86% 30.05 in 10.0 mi Calm Calm - N/A   Clear
12:36 AM 58.5 °F 54.5 °F 87% 30.05 in 10.0 mi Calm Calm - N/A   Clear
12:55 AM 56.5 °F 54.5 °F 93% 30.05 in 10.0 mi Calm Calm - N/A   Scattered Clouds
12:56 AM 56.5 °F 54.5 °F 93% 30.05 in 10.0 mi Calm Calm - N/A   Scattered Clouds
1:18 AM 56.5 °F 53.8 °F 91% 30.05 in 10.0 mi Calm Calm - N/A   Scattered Clouds
1:36 AM 55.6 °F 54.3 °F 96% 30.05 in 10.0 mi Calm Calm - N/A   Scattered Clouds
1:56 AM 56.8 °F 54.7 °F 92% 30.05 in 10.0 mi Calm Calm - N/A   Scattered Clouds
2:15 AM 55.9 °F 54.7 °F 96% 30.06 in 10.0 mi Calm Calm - N/A   Clear
2:35 AM 55.8 °F 54.3 °F 95% 30.06 in 10.0 mi Calm Calm - N/A   Clear
2:58 AM 55.0 °F 54.0 °F 96% 30.05 in 10.0 mi Calm Calm - N/A   Clear
3:15 AM 54.7 °F 53.8 °F 97% 30.06 in 10.0 mi Calm Calm - N/A   Clear
3:35 AM 54.7 °F 53.4 °F 96% 30.06 in 10.0 mi Calm Calm - N/A   Clear
3:36 AM 54.5 °F 53.2 °F 96% 30.06 in 10.0 mi Calm Calm - N/A   Clear
3:55 AM 53.8 °F 52.9 °F 97% 30.06 in 10.0 mi Calm Calm - N/A   Clear
4:18 AM 54.0 °F 53.2 °F 97% 30.06 in 10.0 mi Calm Calm - N/A   Clear
4:36 AM 54.5 °F 53.6 °F 97% 30.07 in 10.0 mi Calm Calm - N/A   Clear
4:56 AM 54.5 °F 53.6 °F 97% 30.07 in 10.0 mi Calm Calm - N/A   Clear
5:15 AM 53.1 °F 52.3 °F 97% 30.07 in 10.0 mi Calm Calm - N/A   Clear
5:16 AM 53.1 °F 52.3 °F 97% 30.07 in 10.0 mi Calm Calm - N/A   Clear
5:35 AM 52.5 °F 51.8 °F 97% 30.07 in 2.5 mi Calm Calm - N/A   Clear
5:39 AM 52.7 °F 52.2 °F 98% 30.07 in 2.0 mi Calm Calm - N/A   Clear
5:57 AM 53.2 °F 52.7 °F 98% 30.08 in 7.0 mi Calm Calm - N/A   Clear
6:16 AM 52.9 °F 52.3 °F 98% 30.09 in 7.0 mi Calm Calm - N/A   Clear
6:35 AM 53.8 °F 53.2 °F 98% 30.09 in 10.0 mi Calm Calm - N/A   Clear
6:36 AM 53.8 °F 53.2 °F 98% 30.09 in 10.0 mi Calm Calm - N/A   Clear
6:55 AM 54.9 °F 54.5 °F 99% 30.10 in 10.0 mi Calm Calm - N/A   Clear
6:56 AM 55.0 °F 54.5 °F 98% 30.10 in 10.0 mi Calm Calm - N/A   Clear
7:18 AM 57.6 °F 55.9 °F 94% 30.10 in 10.0 mi Calm Calm - N/A   Clear
7:36 AM 59.9 °F 56.8 °F 90% 30.11 in 10.0 mi Calm Calm - N/A   Clear
7:56 AM 61.0 °F 57.4 °F 88% 30.12 in 10.0 mi Calm Calm - N/A   Clear
8:15 AM 63.7 °F 57.4 °F 80% 30.12 in 10.0 mi Calm Calm - N/A   Clear
8:16 AM 63.9 °F 57.4 °F 79% 30.12 in 10.0 mi Calm Calm - N/A   Clear
8:35 AM 65.5 °F 58.5 °F 78% 30.13 in 10.0 mi Calm Calm - N/A   Clear
8:39 AM 65.8 °F 58.3 °F 77% 30.13 in 10.0 mi Calm Calm - N/A   Clear
8:57 AM 66.6 °F 58.3 °F 75% 30.13 in 10.0 mi Calm Calm - N/A   Clear
9:16 AM 67.8 °F 58.6 °F 72% 30.13 in 10.0 mi Calm Calm - N/A   Clear
9:35 AM 69.4 °F 58.1 °F 67% 30.13 in 10.0 mi Calm Calm - N/A   Clear
9:36 AM 69.4 °F 58.1 °F 67% 30.13 in 10.0 mi Calm Calm - N/A   Clear
9:55 AM 70.7 °F 58.8 °F 66% 30.13 in 10.0 mi WSW 3.5 mph - N/A   Clear
10:18 AM 71.6 °F 59.2 °F 65% 30.13 in 10.0 mi Calm Calm - N/A   Clear
10:36 AM 71.4 °F 58.5 °F 64% 30.13 in 10.0 mi Calm Calm - N/A   Clear
10:56 AM 72.7 °F 57.4 °F 59% 30.13 in 10.0 mi SW 3.5 mph - N/A   Clear
11:15 AM 73.8 °F 57.6 °F 57% 30.12 in 10.0 mi NNW 3.5 mph - N/A   Clear
11:16 AM 73.8 °F 57.6 °F 57% 30.12 in 10.0 mi Calm Calm - N/A   Clear
11:35 AM 73.8 °F 57.2 °F 56% 30.13 in 10.0 mi Calm Calm - N/A   Clear
11:39 AM 73.9 °F 55.9 °F 53% 30.12 in 10.0 mi Calm Calm - N/A   Clear
11:57 AM 75.0 °F 58.3 °F 56% 30.12 in 10.0 mi Calm Calm - N/A   Clear
12:15 PM 74.8 °F 56.5 °F 53% 30.12 in 10.0 mi ENE 3.5 mph - N/A   Clear
12:35 PM 77.2 °F 56.8 °F 49% 30.12 in 10.0 mi NNW 3.5 mph - N/A   Clear
12:55 PM 75.9 °F 56.7 °F 51% 30.11 in 10.0 mi Calm Calm - N/A   Clear
12:56 PM 75.7 °F 56.7 °F 51% 30.11 in 10.0 mi Calm Calm - N/A   Clear
1:18 PM 77.0 °F 54.9 °F 46% 30.11 in 10.0 mi NNW 4.6 mph - N/A   Clear
1:36 PM 77.7 °F 57.0 °F 49% 30.11 in 10.0 mi Calm Calm - N/A   Clear
1:56 PM 77.9 °F 54.9 °F 45% 30.10 in 10.0 mi Calm Calm - N/A   Scattered Clouds
2:15 PM 79.5 °F 56.8 °F 46% 30.10 in 10.0 mi Calm Calm - N/A   Scattered Clouds
2:16 PM 79.5 °F 56.8 °F 46% 30.10 in 10.0 mi Calm Calm - N/A   Scattered Clouds
2:35 PM 78.3 °F 56.1 °F 46% 30.10 in 10.0 mi Calm Calm - N/A   Scattered Clouds
2:40 PM 79.3 °F 56.3 °F 45% 30.10 in 10.0 mi North 3.5 mph - N/A   Scattered Clouds
2:57 PM 78.3 °F 58.5 °F 50% 30.10 in 10.0 mi Calm Calm - N/A Thunderstorm Mostly Cloudy
3:15 PM 76.8 °F 58.8 °F 54% 30.11 in 10.0 mi Calm Calm - N/A Thunderstorm Scattered Clouds
3:35 PM 73.0 °F 62.6 °F 70% 30.11 in 10.0 mi Calm Calm - N/A   Scattered Clouds
3:36 PM 72.9 °F 62.4 °F 70% 30.11 in 10.0 mi Calm Calm - N/A   Scattered Clouds
3:55 PM 72.0 °F 58.3 °F 62% 30.12 in 10.0 mi SW 3.5 mph - N/A Thunderstorm Mostly Cloudy
4:18 PM 68.2 °F 61.7 °F 80% 30.12 in 10.0 mi Calm Calm - N/A Rain , Thunderstorm Rain
4:36 PM 67.5 °F 64.4 °F 90% 30.12 in 10.0 mi ESE 3.5 mph - 0.01 in Rain , Thunderstorm Light Thunderstorms and Rain
4:56 PM 72.3 °F 63.9 °F 75% 30.11 in 10.0 mi SSE 3.5 mph - 0.01 in   Clear
5:15 PM 73.4 °F 62.8 °F 69% 30.11 in 10.0 mi Calm Calm - N/A   Scattered Clouds
5:16 PM 73.4 °F 63.3 °F 71% 30.11 in 10.0 mi Calm Calm - N/A   Scattered Clouds
5:35 PM 73.6 °F 63.9 °F 72% 30.11 in 10.0 mi SSW 5.8 mph - N/A   Mostly Cloudy
5:39 PM 74.1 °F 64.2 °F 71% 30.12 in 10.0 mi South 4.6 mph - N/A   Mostly Cloudy
5:57 PM 74.1 °F 63.0 °F 68% 30.12 in 10.0 mi SSW 5.8 mph - N/A   Scattered Clouds
6:15 PM 73.4 °F 61.5 °F 66% 30.13 in 10.0 mi SSW 5.8 mph - N/A   Clear
6:35 PM 72.7 °F 62.1 °F 69% 30.13 in 10.0 mi Calm Calm - N/A   Clear
6:36 PM 72.9 °F 62.4 °F 70% 30.13 in 10.0 mi Calm Calm - N/A   Clear
6:55 PM 72.7 °F 62.6 °F 71% 30.14 in 10.0 mi Calm Calm - N/A   Clear
7:00 PM 72.1 °F 63.5 °F 74% 30.13 in 10.0 mi Calm Calm - N/A   Clear
7:18 PM 71.2 °F 63.1 °F 75% 30.14 in 10.0 mi Calm Calm - N/A   Clear
7:36 PM 69.4 °F 62.8 °F 79% 30.14 in 10.0 mi Calm Calm - N/A   Clear
7:55 PM 66.6 °F 63.0 °F 88% 30.14 in 10.0 mi Calm Calm - N/A   Clear
7:56 PM 66.4 °F 62.8 °F 88% 30.14 in 10.0 mi Calm Calm - N/A   Clear
8:15 PM 65.7 °F 61.7 °F 87% 30.14 in 10.0 mi Calm Calm - N/A   Clear
8:20 PM 65.1 °F 61.7 °F 89% 30.14 in 10.0 mi Calm Calm - N/A   Clear
8:37 PM 65.7 °F 60.6 °F 84% 30.14 in 10.0 mi Calm Calm - N/A   Clear
8:55 PM 64.8 °F 60.4 °F 86% 30.15 in 10.0 mi ESE 3.5 mph - N/A   Clear
9:15 PM 66.0 °F 59.4 °F 79% 30.16 in 10.0 mi SE 3.5 mph - N/A   Scattered Clouds
9:16 PM 66.0 °F 59.4 °F 79% 30.16 in 10.0 mi ESE 3.5 mph - N/A   Scattered Clouds
9:35 PM 66.0 °F 59.4 °F 79% 30.17 in 10.0 mi South 3.5 mph - N/A   Mostly Cloudy
9:39 PM 66.0 °F 59.4 °F 79% 30.17 in 10.0 mi SE 3.5 mph - N/A   Scattered Clouds
9:57 PM 64.8 °F 60.3 °F 85% 30.17 in 10.0 mi Calm Calm - N/A   Mostly Cloudy
10:16 PM 64.8 °F 60.1 °F 85% 30.17 in 10.0 mi Calm Calm - N/A   Overcast
10:35 PM 64.2 °F 60.1 °F 86% 30.17 in 10.0 mi Calm Calm - N/A   Scattered Clouds
10:36 PM 64.0 °F 60.1 °F 87% 30.17 in 10.0 mi Calm Calm - N/A   Scattered Clouds
10:55 PM 63.9 °F 59.2 °F 85% 30.17 in 10.0 mi SSE 3.5 mph - N/A   Clear
10:59 PM 63.3 °F 59.0 °F 86% 30.17 in 10.0 mi South 3.5 mph - N/A   Clear
11:17 PM 61.9 °F 58.8 °F 90% 30.18 in 10.0 mi Calm Calm - N/A   Clear
11:36 PM 61.3 °F 58.6 °F 91% 30.18 in 10.0 mi Calm Calm - N/A   Scattered Clouds
11:55 PM 61.0 °F 58.6 °F 92% 30.18 in 10.0 mi Calm Calm - N/A   Mostly Cloudy
11:56 PM 61.0 °F 58.6 °F 92% 30.18 in 10.0 mi Calm Calm - N/A   Mostly Cloudy